Regional Weather Roundup
Issued by NWS

Home | Current Version | Previous Version | Graphics & Text | Print | Product List | Glossary On
Versions: 1 2 3 4 5 6 7 8 9 10 11 12 13 14 15 16 17 18 19 20 21 22 23 24 25 26 27 28 29 30 31 32 33 34 35 36 37 38 39 40 41 42 43 44 45 46 47 48 49 50
000
ASUS43 KOAX 222202
RWRNE

WEATHER ROUNDUP FOR NEBRASKA
NATIONAL WEATHER SERVICE OMAHA NE
500 PM CDT FRI MAY 22 2015

NOTES: SATELLITE DATA IS BEING USED TO AUGMENT CLOUD COVER ABOVE
       12000 FEET.
       "FAIR" INDICATES FEW OR NO CLOUDS BELOW 12,000 FEET WITH NO
       SIGNIFICANT WEATHER AND/OR OBSTRUCTIONS TO VISIBILITY.

  * THESE STATIONS DO NOT REPORT WEATHER SUCH AS RAIN...SNOW OR FOG.

NEZ001>004-019>022-054>056-222300-
NEBRASKA PANHANDLE

CITY           SKY/WX    TMP DP  RH WIND       PRES   REMARKS
SCOTTSBLUFF    CLOUDY    49  46  90 SE14      30.05F
ALLIANCE       CLOUDY    48  44  86 SE18      30.06F
CHADRON        CLOUDY    53  43  68 SE10      30.07F
SIDNEY         LGT RAIN  48  47  96 E14       30.04S FOG
$$

NEZ057>060-069>072-079>082-222300-
SOUTHWEST NEBRASKA

CITY           SKY/WX    TMP DP  RH WIND       PRES   REMARKS
NORTH PLATTE   LGT RAIN  47  44  90 E14G23    30.13S
IMPERIAL       CLOUDY    49  47  93 E18G25    30.06F
MCCOOK         CLOUDY    51  49  92 E14       30.09S FOG
$$

NEZ005>010-023>029-035>040-094-222300-
NORTH CENTRAL NEBRASKA

CITY           SKY/WX    TMP DP  RH WIND       PRES   REMARKS
VALENTINE      LGT RAIN  50  43  77 SE22G29   30.17F
BROKEN BOW     LGT RAIN  52  46  80 E13G24    30.15F
ORD            LGT RAIN  53  44  71 E12       30.17F
$$

NEZ041-046>049-061>064-073>077-083>087-222300-
SOUTH CENTRAL NEBRASKA

CITY           SKY/WX    TMP DP  RH WIND       PRES   REMARKS
GRAND ISLAND   CLOUDY    58  42  55 SE14      30.18F
HASTINGS       LGT RAIN  55  45  68 SE10G22   30.17S
KEARNEY *      CLOUDY    52  48  87 E9        30.16F
$$

NEZ011>018-030>034-042>045-222300-
NORTHEAST NEBRASKA

CITY           SKY/WX    TMP DP  RH WIND       PRES   REMARKS
NORFOLK        LGT RAIN  54  48  80 E6        30.23F
COLUMBUS *     CLOUDY    61  45  55 E7        30.23F
TEKAMAH        LGT RAIN  61  48  62 S22G32    30.23S
$$

NEZ050>053-065>068-078-088>093-222300-
SOUTHEAST NEBRASKA

CITY           SKY/WX    TMP DP  RH WIND       PRES   REMARKS
LINCOLN        CLOUDY    64  45  49 SE10      30.21S
OMAHA EPPLEY   CLOUDY    63  49  60 E9        30.22F
FALLS CITY     CLOUDY    65  47  52 SE10      30.21F
$$

NEZ044-045-051>053-067-222300-
OMAHA AREA

CITY           SKY/WX    TMP DP  RH WIND       PRES   REMARKS
OMAHA EPPLEY   CLOUDY    63  49  60 E9        30.22F
OFFUTT AFB     PTSUNNY   67  49  53 E5        30.21F
$$



USA.gov is the U.S. government's official web portal to all federal, state and local government web resources and services.